Location: Frankfurt+(oder)
(51.7984°N, 12.2168°E)
Time: 13:53:38
(UTC+02:00)

ELECTRON R/B - Visible Passes

Search period start: 20 May 2018 00:00
Search period end: 30 May 2018 00:00
Orbit: 285 x 480 km, 82.9° (Epoch: 19 May)

Date Brightness Start Highest point End Pass type
(mag) Time Alt. Az. Time Alt. Az. Time Alt. Az.
20 May 5.9 22:25:51 10° NNW 22:28:07 32° W 22:30:20 10° SSW visible
22 May 5.7 22:05:54 10° NNW 22:08:13 37° W 22:10:30 10° SSW visible
25 May 7.6 22:23:18 10° WNW 22:24:00 11° W 22:24:42 10° WSW visible
27 May 7.5 22:02:11 10° WNW 22:03:23 13° W 22:04:35 10° WSW visible
